Location: Salluit
(62.2046°N, 75.6437°W)
Time: 08:40:26
(UTC-04:00)

SL-21 R/B - Visible Passes

Search period start: 25 October 2014 00:00
Search period end: 03 November 2014 23:00
Orbit: 249 x 265 km, 78.9° (Epoch: 25 October)

Date Brightness Start Highest point End Pass type
(mag) Time Alt. Az. Time Alt. Az. Time Alt. Az.
25 Oct 5.5 19:08:46 10° N 19:09:43 17° NNE 19:09:43 17° NNE visible
25 Oct 7.1 20:39:22 10° NW 20:39:24 10° NW 20:39:24 10° NW visible
26 Oct 5.2 19:03:19 10° N 19:04:28 19° NNE 19:04:28 19° NNE visible
26 Oct 7.0 20:33:59 10° NW 20:34:07 11° NW 20:34:07 11° NW visible
27 Oct 4.9 18:57:13 10° N 18:58:36 22° NNE 18:58:36 22° NNE visible
27 Oct 7.0 20:27:57 10° NW 20:28:13 12° NW 20:28:13 12° NW visible
28 Oct 4.5 18:50:29 10° N 18:52:09 25° NE 18:52:09 25° NE visible
28 Oct 6.9 20:21:16 10° NW 20:21:44 13° WNW 20:21:44 13° WNW visible
29 Oct 4.2 18:43:06 10° N 18:45:06 28° ENE 18:45:08 28° ENE visible
29 Oct 6.7 20:13:56 10° NW 20:14:40 15° WNW 20:14:40 15° WNW visible
30 Oct 4.1 18:35:05 10° N 18:37:05 30° ENE 18:37:33 27° E visible
30 Oct 6.6 20:05:57 10° NW 20:07:04 16° W 20:07:04 16° W visible
31 Oct 4.0 18:26:25 10° N 18:28:25 31° ENE 18:29:28 20° ESE visible
31 Oct 6.4 19:57:18 10° WNW 19:58:45 16° W 19:58:57 16° WSW visible
01 Nov 3.9 18:17:06 10° N 18:19:06 32° ENE 18:20:57 11° SE visible
01 Nov 6.5 19:48:00 10° WNW 19:49:23 15° W 19:50:24 12° SW visible
02 Nov 3.9 17:07:09 10° N 17:09:08 32° ENE 17:11:06 10° SE visible
02 Nov 6.6 18:38:03 10° WNW 18:39:22 15° W 18:40:42 10° SW visible
03 Nov 3.8 16:56:34 10° N 16:58:31 32° ENE 17:00:29 10° SE visible
03 Nov 6.7 18:27:25 10° WNW 18:28:43 15° W 18:30:02 10° SW visible
